When you browse on this site, cookies collect data to enhance your experience and personalize the content and advertising you see.
Visit our Privacy Policy to learn more. By continuing to use the site, you agree to this use of cookies and data.
  • In Portugal
  • List of Countries
  • For 7 days
  • Water Temperature
  • Weather Map
  • Weather Widgets
  • user-avatar
    Login

    Hourly Weather l'Hospitalet de Llobregat

    Today, 17 November, Sunday

    Time Temperature Precipitation Wind Pressure Humidity
    00:00 +7°C° 0 mm 3 mps 750 mmHg 62%
    01:00 +7°C° 0 mm 3 mps 749 mmHg 61%
    02:00 +7°C° 0 mm 2 mps 749 mmHg 61%
    03:00 +6°C° 0 mm 2 mps 749 mmHg 61%
    04:00 +6°C° 0 mm 2 mps 749 mmHg 61%
    05:00 +6°C° 0 mm 2 mps 749 mmHg 61%
    06:00 +6°C° 0 mm 2 mps 749 mmHg 61%
    07:00 +7°C° 0 mm 2 mps 749 mmHg 58%
    08:00 +7°C° 0 mm 2 mps 749 mmHg 55%
    09:00 +8°C° 0 mm 2 mps 749 mmHg 53%
    10:00 +9°C° 0 mm 3 mps 749 mmHg 50%
    11:00 +11°C° 0 mm 4 mps 749 mmHg 47%
    12:00 +12°C° 0 mm 5 mps 748 mmHg 44%
    13:00 +12°C° 0 mm 5 mps 748 mmHg 46%
    14:00 +12°C° 0 mm 5 mps 748 mmHg 47%
    15:00 +11°C° 0 mm 6 mps 747 mmHg 49%
    16:00 +12°C° 0 mm 5 mps 748 mmHg 52%
    17:00 +10°C° 0 mm 5 mps 748 mmHg 56%
    18:00 +11°C° 0 mm 4 mps 748 mmHg 60%
    19:00 +10°C° 0.5 mm 4 mps 748 mmHg 65%
    20:00 +10°C° 0.5 mm 3 mps 748 mmHg 71%
    21:00 +10°C° 0.5 mm 3 mps 748 mmHg 76%
    22:00 +9°C° 0.2 mm 3 mps 748 mmHg 76%
    23:00 +9°C° 0.2 mm 3 mps 748 mmHg 76%

    Tomorrow, 18 November, Monday

    Time Temperature Precipitation Wind Pressure Humidity
    00:00 +8°C° 0.2 mm 4 mps 748 mmHg 75%
    01:00 +8°C° 0 mm 3 mps 748 mmHg 75%
    02:00 +8°C° 0 mm 3 mps 748 mmHg 74%
    03:00 +8°C° 0 mm 3 mps 748 mmHg 74%
    04:00 +8°C° 0 mm 3 mps 748 mmHg 73%
    05:00 +8°C° 0 mm 3 mps 749 mmHg 72%
    06:00 +8°C° 0 mm 3 mps 749 mmHg 71%
    07:00 +8°C° 0 mm 3 mps 750 mmHg 68%
    08:00 +9°C° 0 mm 2 mps 750 mmHg 64%
    09:00 +10°C° 0 mm 2 mps 751 mmHg 60%
    10:00 +11°C° 0 mm 3 mps 751 mmHg 56%
    11:00 +12°C° 0 mm 3 mps 751 mmHg 53%
    12:00 +13°C° 0 mm 3 mps 751 mmHg 49%
    13:00 +13°C° 0 mm 3 mps 751 mmHg 49%
    14:00 +13°C° 0 mm 4 mps 751 mmHg 50%
    15:00 +13°C° 0 mm 5 mps 751 mmHg 51%
    16:00 +13°C° 0 mm 4 mps 751 mmHg 54%
    17:00 +12°C° 0 mm 4 mps 752 mmHg 58%
    18:00 +11°C° 0 mm 4 mps 752 mmHg 62%
    19:00 +11°C° 0 mm 4 mps 753 mmHg 63%
    20:00 +10°C° 0 mm 4 mps 753 mmHg 65%
    21:00 +10°C° 0 mm 4 mps 753 mmHg 67%
    22:00 +10°C° 0 mm 4 mps 753 mmHg 68%
    23:00 +9°C° 0 mm 3 mps 753 mmHg 70%

    Day after tomorrow, 19 November, Tuesday

    Time Temperature Precipitation Wind Pressure Humidity
    00:00 +9°C° 0 mm 3 mps 754 mmHg 72%
    01:00 +8°C° 0 mm 3 mps 754 mmHg 72%
    02:00 +8°C° 0 mm 3 mps 754 mmHg 72%
    03:00 +8°C° 0 mm 3 mps 753 mmHg 73%
    04:00 +8°C° 0 mm 2 mps 754 mmHg 72%
    05:00 +7°C° 0 mm 2 mps 754 mmHg 71%
    06:00 +7°C° 0 mm 2 mps 754 mmHg 70%
    07:00 +8°C° 0 mm 2 mps 754 mmHg 66%
    08:00 +8°C° 0 mm 2 mps 754 mmHg 63%
    09:00 +9°C° 0 mm 2 mps 755 mmHg 59%
    10:00 +10°C° 0 mm 2 mps 755 mmHg 58%
    11:00 +12°C° 0 mm 1 mps 754 mmHg 56%
    12:00 +13°C° 0 mm 1 mps 754 mmHg 55%
    13:00 +13°C° 0.1 mm 1 mps 754 mmHg 56%
    14:00 +13°C° 0.1 mm 2 mps 754 mmHg 56%
    15:00 +13°C° 0.1 mm 2 mps 754 mmHg 57%
    16:00 +12°C° 0 mm 2 mps 754 mmHg 60%
    17:00 +12°C° 0 mm 1 mps 754 mmHg 63%
    18:00 +11°C° 0 mm 1 mps 754 mmHg 66%
    19:00 +11°C° 0 mm 1 mps 754 mmHg 67%
    20:00 +11°C° 0 mm 1 mps 754 mmHg 67%
    21:00 +10°C° 0 mm 1 mps 755 mmHg 68%
    22:00 +10°C° 0 mm 1 mps 754 mmHg 67%
    23:00 +10°C° 0 mm 1 mps 754 mmHg 67%

    20 November, Wednesday

    Time Temperature Precipitation Wind Pressure Humidity
    00:00 +9°C° 0 mm 1 mps 754 mmHg 66%
    01:00 +9°C° 0 mm 1 mps 754 mmHg 66%
    02:00 +8°C° 0 mm 2 mps 753 mmHg 65%
    03:00 +8°C° 0 mm 2 mps 753 mmHg 65%
    04:00 +8°C° 0 mm 2 mps 753 mmHg 66%
    05:00 +8°C° 0 mm 2 mps 752 mmHg 66%
    06:00 +8°C° 0 mm 2 mps 752 mmHg 66%
    07:00 +8°C° 0 mm 2 mps 752 mmHg 64%
    08:00 +9°C° 0 mm 2 mps 752 mmHg 61%
    09:00 +10°C° 0 mm 2 mps 752 mmHg 59%
    10:00 +12°C° 0.1 mm 2 mps 751 mmHg 58%
    11:00 +13°C° 0.1 mm 2 mps 751 mmHg 58%
    12:00 +14°C° 0.1 mm 2 mps 751 mmHg 58%
    13:00 +13°C° 0.3 mm 3 mps 750 mmHg 62%
    14:00 +13°C° 0.3 mm 3 mps 750 mmHg 67%
    15:00 +13°C° 0.3 mm 4 mps 749 mmHg 72%
    16:00 +13°C° 0.8 mm 5 mps 749 mmHg 76%
    17:00 +12°C° 0.8 mm 5 mps 749 mmHg 79%
    18:00 +11°C° 0.8 mm 6 mps 749 mmHg 83%
    19:00 +12°C° 1.3 mm 5 mps 749 mmHg 84%
    20:00 +12°C° 1.3 mm 4 mps 749 mmHg 85%
    21:00 +12°C° 1.3 mm 3 mps 749 mmHg 87%
    22:00 +11°C° 0.1 mm 3 mps 748 mmHg 85%
    23:00 +11°C° 0.1 mm 3 mps 748 mmHg 84%

    21 November, Thursday

    Time Temperature Precipitation Wind Pressure Humidity
    00:00 +11°C° 0.1 mm 3 mps 748 mmHg 83%
    01:00 +10°C° 0 mm 2 mps 747 mmHg 83%
    02:00 +10°C° 0 mm 2 mps 747 mmHg 82%
    03:00 +10°C° 0 mm 2 mps 746 mmHg 82%
    04:00 +10°C° 0.1 mm 2 mps 746 mmHg 82%
    05:00 +11°C° 0.1 mm 3 mps 746 mmHg 83%
    06:00 +11°C° 0.1 mm 4 mps 746 mmHg 84%
    07:00 +11°C° 0.1 mm 4 mps 746 mmHg 80%
    08:00 +12°C° 0.1 mm 4 mps 746 mmHg 76%
    09:00 +12°C° 0.1 mm 4 mps 747 mmHg 73%
    10:00 +14°C° 0 mm 4 mps 746 mmHg 65%
    11:00 +15°C° 0 mm 5 mps 746 mmHg 58%
    12:00 +16°C° 0 mm 5 mps 746 mmHg 50%
    13:00 +16°C° 0 mm 5 mps 746 mmHg 51%
    14:00 +15°C° 0 mm 5 mps 746 mmHg 52%
    15:00 +15°C° 0 mm 5 mps 745 mmHg 53%
    16:00 +15°C° 0 mm 5 mps 746 mmHg 59%
    17:00 +14°C° 0 mm 4 mps 746 mmHg 64%
    18:00 +13°C° 0 mm 4 mps 746 mmHg 70%
    19:00 +13°C° 0.1 mm 4 mps 746 mmHg 72%
    20:00 +13°C° 0.1 mm 4 mps 746 mmHg 75%
    21:00 +13°C° 0.1 mm 4 mps 746 mmHg 77%
    22:00 +13°C° 0.3 mm 4 mps 746 mmHg 78%
    23:00 +13°C° 0.3 mm 4 mps 745 mmHg 80%

    22 November, Friday

    Time Temperature Precipitation Wind Pressure Humidity
    00:00 +13°C° 0.3 mm 3 mps 745 mmHg 81%
    01:00 +12°C° 1 mm 3 mps 745 mmHg 84%
    02:00 +13°C° 1 mm 2 mps 744 mmHg 86%
    03:00 +13°C° 1 mm 1 mps 744 mmHg 89%
    04:00 +13°C° 1.6 mm 1 mps 743 mmHg 89%
    05:00 +12°C° 1.6 mm 1 mps 743 mmHg 89%
    06:00 +12°C° 1.6 mm 2 mps 743 mmHg 88%
    07:00 +12°C° 1.1 mm 2 mps 743 mmHg 86%
    08:00 +12°C° 1.1 mm 2 mps 743 mmHg 85%
    09:00 +12°C° 1.1 mm 2 mps 743 mmHg 83%
    10:00 +13°C° 1.7 mm 2 mps 743 mmHg 80%
    11:00 +13°C° 1.7 mm 1 mps 742 mmHg 78%
    12:00 +13°C° 1.7 mm 1 mps 742 mmHg 76%
    13:00 +13°C° 0.8 mm 1 mps 742 mmHg 75%
    14:00 +14°C° 0.8 mm 1 mps 742 mmHg 74%
    15:00 +14°C° 0.8 mm 1 mps 742 mmHg 72%
    16:00 +13°C° 0.2 mm 2 mps 742 mmHg 72%
    17:00 +13°C° 0.2 mm 2 mps 743 mmHg 72%
    18:00 +13°C° 0.2 mm 2 mps 743 mmHg 71%
    19:00 +12°C° 0 mm 3 mps 744 mmHg 70%
    20:00 +11°C° 0 mm 3 mps 744 mmHg 69%
    21:00 +11°C° 0 mm 3 mps 745 mmHg 68%
    22:00 +11°C° 0 mm 3 mps 745 mmHg 70%
    23:00 +10°C° 0 mm 3 mps 746 mmHg 72%
    Show more